www.pogodaiklimat.ru

Погода и климат >> Архив погоды >> Россия >> Краснодарский край >> Краснодар


АРХИВ ПОГОДЫ в Краснодаре

Время (UTC), дата Ветер
(напр.,м/с)
 
Видим.   Явления Облачность Т
(С)
Тd
(С)
f
(%)
Тe
(С)
Тes
(С)
Комфортность P
(гПа)
Po
(гПа)
Тmin
(С)
Tmax
(С)
R
(мм)
S
(см)
18 20.03 Ю 2 10 км {ливн. осадки} 10/8 1000 м
[Sc Ac und]
+5.4 +1.0 73 +3 +3 по сезону 1013.9 1010.2
21 20.03 ЮЗ 2 10 км 6/6 1000 м
[Sc]
+5.5 +0.9 72 +3 +3 по сезону 1013.7 1010.0
00 21.03 Ю 1 10 км в посл. час ливневой дождь 10/8 1000 м
[Cb cap Ac und]
+3.8 +1.6 86 +2 +2 по сезону 1013.7 1009.9
03 21.03 ЮЗ 2 10 км 10/5 1000 м
[Sc Ac trans Ci fib]
+4.6 +2.1 84 +2 +2 по сезону 1014.4 1010.7 +3.8 0.5
06 21.03 ЮЗ 2 10 км 9/5 600 м
[Sc Ac trans]
+6.0 +2.2 77 +4 +5 по сезону 1015.5 1011.8
09 21.03 ЮЗ 2 4000 м слабый ливневой дождь 9/9 300 м
[Cb cap]
+9.0 +1.0 57 +8 +9 по сезону 1015.5 1011.8
12 21.03 З 4 10 км в посл. час ливневой дождь 9/8 1000 м
[Cb cap Ac trans Ci fib]
+9.1 -0.8 50 +7 +7 по сезону 1015.7 1012.0
15 21.03 СЗ 3 10 км 8/3 600 м
[Cb cap Cc]
+9.5 -2.1 44 +8 +8 по сезону 1016.7 1013.0 +10.6 0.1
18 21.03 СЗ 1 10 км 10/0
[Ac trans Ci fib]
+6.2 -2.4 54 +6 +6 по сезону 1017.9 1014.2
21 21.03 З 1 10 км 8/0
[Ac trans Ci fib]
+5.3 +0.2 70 +4 +4 по сезону 1018.4 1014.7
00 22.03 ЮЗ 1 10 км ясно +3.5 +0.5 81 +2 +2 по сезону 1018.8 1015.0
03 22.03 ЮЗ 1 10 км 3/0
[Ac lent]
+2.0 +0.1 87 0 0 прохладно 1019.9 1016.1 +2.0
06 22.03 ЮЗ 2 10 км 10/0
[Ac trans Ci fib]
+6.5 +1.7 71 +4 +7 по сезону 1020.5 1016.7 +2.0
09 22.03 З 2 10 км 10/1 1000 м
[Sc diur, vesp Ac und]
+8.2 +2.4 67 +7 +10 по сезону 1021.2 1017.4
12 22.03 З 3 10 км 10/8 1000 м
[Sc Ac und]
+9.1 +2.7 64 +7 +7 по сезону 1021.0 1017.3
15 22.03 З 2 10 км 10/6 1000 м
[Sc Ac und]
+9.0 +2.7 65 +8 +8 по сезону 1021.0 1017.3 +9.4
18 22.03 З 2 10 км 9/9 1000 м
[Sc]
+8.3 +3.2 70 +7 +7 по сезону 1021.9 1018.2
21 22.03 З 1 10 км 10/8 1000 м
[Sc Ac und]
+6.6 +0.9 67 +6 +6 по сезону 1022.3 1018.6
00 23.03 З 2 10 км 3/0
[Ac trans]
+5.1 +0.8 74 +3 +3 по сезону 1022.3 1018.5
03 23.03 З 1 10 км ясно +4.8 +0.2 72 +4 +4 по сезону 1022.5 1018.8 +4.5
06 23.03 З 1 10 км 3/3 600 м
[Sc]
+8.5 +1.5 61 +8 +12 тепло 1023.3 1019.6 +4.0
09 23.03 З 2 10 км 3/3 600 м
[Cu hum]
+14.2 +5.0 54 +14 +22 тепло 1023.3 1019.7
12 23.03 С 1 10 км 9/9 600 м
[Cb cap]
+16.3 +3.9 44 +17 +18 тепло 1022.9 1019.3
15 23.03 СВ 1 10 км 3/3 600 м
[Cu med, cong]
+14.3 +2.7 46 +15 +15 тепло 1023.3 1019.7 +16.4
18 23.03 В 1 10 км ясно +10.2 +3.6 64 +10 +10 тепло 1025.0 1021.3
21 23.03 В 1 10 км ясно +6.8 +3.1 77 +6 +6 по сезону 1026.0 1022.3
00 24.03 В 1 10 км ясно +5.3 +2.8 84 +4 +4 по сезону 1026.1 1022.3
03 24.03 штиль 0 10 км ясно +3.1 +1.5 89 +2 +2 по сезону 1026.7 1022.9 +3.1
06 24.03 В 1 10 км ясно +9.1 +3.6 68 +9 +15 тепло 1026.9 1023.2
09 24.03 ЮВ 1 10 км ясно +13.9 +2.0 44 +15 +29 опасность
простуды
1026.1 1022.4
12 24.03 ЮВ 1 10 км ясно +16.2 +2.0 38 +17 +26 тепло 1024.3 1020.6
15 24.03 Ю 1 10 км ясно +15.6 +2.3 41 +16 +17 тепло 1022.9 1019.3 +17.6
18 24.03 ЮЗ 1 10 км ясно +10.5 +3.2 61 +10 +10 тепло 1023.1 1019.4
21 24.03 ЮЗ 2 10 км 8/0
[Ac trans Ci fib]
+7.8 +3.4 74 +6 +6 по сезону 1022.5 1018.8
00 25.03 ЮЗ 1 10 км 10/3 1000 м
[Sc Ac trans Ci fib]
+6.6 +2.9 77 +6 +6 по сезону 1021.5 1017.8
03 25.03 ЮЗ 1 10 км 10/3 1000 м
[Sc Ac trans Ci fib]
+6.4 +2.5 76 +6 +6 по сезону 1020.0 1016.3 +6.1
06 25.03 ЮЗ 2 10 км 10/4 1000 м
[Sc Ac trans Ci fib]
+9.7 +2.4 60 +8 +10 тепло 1019.6 1015.9
09 25.03 З 3 10 км 10/3 1000 м
[Sc Ac trans Ci sp]
+13.5 +3.5 51 +13 +16 тепло 1018.5 1014.9
12 25.03 З 4 4000 м слабый ливневой дождь 10/10 1000 м
[Cb cap]
+9.1 +5.3 77 +6 +6 прохладно 1018.2 1014.5
15 25.03 ЮЗ 2 10 км в посл. час ливневой дождь 10/10 1000 м
[Sc]
+8.4 +5.3 81 +7 +7 по сезону 1017.3 1013.6 +13.7 2
18 25.03 З 2 4000 м слабый дождь {ливн. осадки} 10/10 300 м
[Frnb Ns]
+7.7 +6.5 92 +6 +6 по сезону 1017.6 1013.9
21 25.03 СЗ 1 10 км слабый дождь 10/10 300 м
[St]
+7.3 +6.1 92 +6 +6 по сезону 1016.8 1013.1
00 26.03 штиль 0 4000 м слабый дождь 10/10 300 м
[Frnb Ns]
+5.8 +4.5 91 +5 +5 по сезону 1016.4 1012.7
03 26.03 ЮВ 1 4000 м слабый дождь 10/10 300 м
[Frnb Ns]
+5.8 +4.4 91 +5 +5 по сезону 1015.7 1011.9 +5.7 5
06 26.03 штиль 0 4000 м слабый дождь 10/10 300 м
[Frnb Ns]
+6.0 +4.6 91 +5 +5 по сезону 1016.0 1012.3 +5.6
09 26.03 С 1 4000 м слабый дождь 10/10 300 м
[Frnb Ns]
+5.6 +3.6 87 +4 +4 прохладно 1016.1 1012.4
12 26.03 СВ 1 4000 м слабый дождь 10/10 300 м
[Frnb Ns]
+5.7 +3.6 86 +5 +5 холодно 1015.6 1011.9
15 26.03 В 1 4000 м слабый дождь 10/10 300 м
[Frnb Ns]
+5.3 +3.6 89 +4 +4 прохладно 1015.4 1011.7 +6.3 10
18 26.03 штиль 0 4000 м слабый дождь 10/10 300 м
[Frnb Ns]
+4.8 +3.5 91 +4 +4 прохладно 1015.7 1012.0
21 26.03 СВ 1 4000 м слабый дождь 10/10 300 м
[Frnb Ns]
+4.7 +3.4 91 +3 +3 по сезону 1015.6 1011.8
00 27.03 штиль 0 4000 м слабый дождь 10/10 300 м
[Frnb Ns]
+4.3 +2.8 90 +3 +3 по сезону 1015.2 1011.4
03 27.03 З 1 4000 м слабый дождь 10/10 300 м
[Frnb Ns]
+3.9 +2.4 90 +2 +2 по сезону 1015.4 1011.7 +3.7 10
06 27.03 ЮЗ 1 4000 м слабый дождь 10/10 300 м
[Frnb Ns]
+4.8 +3.1 89 +3 +3 по сезону 1015.7 1012.0
09 27.03 З 2 10 км {дождь} 10/10 600 м
[Cb cap]
+6.4 +2.8 78 +4 +4 прохладно 1015.1 1011.4
12 27.03 ЮЗ 3 10 км {дождь} 9/9 600 м
[Cb cap]
+9.1 +2.3 62 +7 +8 прохладно 1013.6 1009.9

 

Местоположение метеостанции Краснодар (Краснодарский край, Россия): широта 45.05 долгота 39.03 высота над уровнем моря 29 м.

В архиве по умолчанию представлена погода в Краснодаре за последнюю неделю. Архивные данные за месяц целиком и за предыдущие месяцы, начиная с января 2011 года, Вы можете получить, выбрав интересующий диапазон дат из раскрывающегося списка и нажав кнопку "Ввод!".

Внимание! Время в таблицах - всемирное. Для получения местного времени необходимо прибавить поправку, которая в Краснодаре равна 3 ч.

Смотрите также архив погоды в соседних городах и на ближайших метеорологических станциях:

Погода в Горячем Ключе (Краснодарский край, Россия) (47 км)
Погода в Усть-Лабинске (Краснодарский край, Россия) (58 км)
Погода в Кореновске (Краснодарский край, Россия) (59 км)
Погода в Тимашевске (Краснодарский край, Россия) (65 км)
Погода в Славянске-на-Кубани (Краснодарский край, Россия) (76 км)
Погода в Белореченске (Краснодарский край, Россия) (76 км)
Погода в Крымске (Краснодарский край, Россия) (82 км)
Погода в Джубге (Краснодарский край, Россия) (84 км)
Погода в Горном (Краснодарский край, Россия) (88 км)
Погода в Геленджике (Краснодарский край, Россия) (92 км)

Пояснения к столбцам:

Ветер - указаны скорость ветра в м/с - средняя за 10 мин, порывы в срок и между сроками (в фигурных скобках) и направление, откуда дует ветер: С - северный, СВ - северо-восточный, В - восточный, ЮВ - юго-восточный, Ю - южный, ЮЗ - юго-западный, З - западный, СЗ - северо-западный.
Видимость - горизонтальная дальность видимости в метрах или километрах. При видимости от 1 до 10 км при отсутствии осадков обычно наблюдается дымка, при ухудшении видимости до 1 км и менее - туман. В сухую погоду видимость может ухудшаться дымом, пылью или мглою.
Явления - указаны атмосферные явления, наблюдавшиеся в срок или в последний час перед сроком; фигурными скобками обозначены явления, наблюдавшиеся между сроками (за 1-3 часа до срока); квадратными скобками обозначены град или гололедные отложения с указанием их диаметра в мм.
Облачность - указаны через наклонную черту общая и нижняя облачность в баллах и высота нижней границы облаков в метрах; квадратными скобками обозначены формы облаков: Ci - перистые, Cs - перисто-слоистые, Cc - перисто-кучевые, Ac - высококучевые, As - высокослоистые, Sc - слоисто-кучевые, Ns - слоисто-дождевые, Cu - кучевые, Cb - кучево-дождевые. Подробнее классификацию облаков см. в Атласе облаков (PDF).
T - Температура воздуха - температура, измеренная на высоте 2 м над землей.
Td - Температура точки росы - температура, при понижении до которой содержащийся в воздухе водяной пар достигнет насыщения.
f - Относительная влажность воздуха - влажноcть воздуха, измеренная на высоте 2 м над землей.
Te - Эффективная температура - температура, которую ощущает одетый по сезону человек в тени. Характеристика душности погоды. При расчете учитывается влияние влажности воздуха и скорости ветра на теплоощущения человека.
Tes - Эффективная температура на солнце - температура, которую ощущает человек, с поправкой на солнечный нагрев. Характеристика знойности погоды. Зависит от высоты солнца над горизонтом, облачности и скорости ветра. Ночью, в пасмурную погоду, а также при ветре 12 м/с и более поправка равна нулю.
P - Атмосферное давление - приведенное к уровню моря атмосферное давление.
Po - Атмосферное давление - измеренное на уровне метеостанции атмосферное давление.
Tmin - Минимальная температура - минимум температуры воздуха на высоте 2 м над землей.
Tmax - Максимальная температура - максимум температуры воздуха на высоте 2 м над землей.
R - Количество осадков - Количество выпавших осадков, мм. При наведении курсора мыши на число - период времени, за который выпало указанное количество осадков.
S - Снежный покров - Высота снежного покрова, см. При наведении курсора мыши на число - состояние снежного покрова и степень покрытия местности в баллах.